Preview of NWS' New Version of Forecast
This preview is not operational and should not be used for support decisions.

Regional Weather Roundup (RWR)

Issued by National Weather Service (NWS)

                            
000
ASUS45 KBOU 180110
RWRCO 

WEATHER ROUNDUP FOR COLORADO
NATIONAL WEATHER SERVICE DENVER/BOULDER CO
700 PM MDT MON JUN 17 2019

NOTE: "FAIR" INDICATES FEW OR NO CLOUDS BELOW 12000 FEET WITH NO
SIGNIFICANT WEATHER AND/OR OBSTRUCTIONS TO VISIBILITY.

COZ001>005-013-030-031-180200-
...NORTHWEST COLORADO...
  
CITY           SKY/WX    TMP DP  RH WIND       PRES   REMARKS
CRAIG          FAIR      66  48  52 S8        30.09S                  
HAYDEN         CLOUDY    61  48  62 E10       30.13F                  
MEEKER         CLOUDY    60  49  66 SE3       30.12R                  
RANGELY        MOCLDY    73  46  38 S5        30.04F                  
RABBIT EARS PA NOT AVBL                                               
STEAMBOAT SPGS PTSUNNY   58  45  62 E3        30.14F                  
WALDEN         CLOUDY    50  45  81 SE10      30.21F                  
$$

COZ006>008-011-180200-
...WEST CENTRAL VALLEYS...
  
CITY           SKY/WX    TMP DP  RH WIND       PRES   REMARKS
GRAND JUNCTION TSTM      59  53  80 SW6       30.07R                  
MONTROSE       FAIR      67  42  40 SW8       30.11R                  
EAGLE          LGT RAIN  58  47  66 N5        30.18S                  
RIFLE          PTSUNNY   68  47  46 E3        30.06S                  
DELTA          CLOUDY    72  44  37 W13G18    30.08R                  
NUCLA          CLOUDY    61  46  59 NW9       30.20R                  
$$

COZ017>023-064>068-180200-
...SOUTHWEST COLORADO...
  
CITY           SKY/WX    TMP DP  RH WIND       PRES   REMARKS
DURANGO        CLOUDY    65  43  44 CALM      30.15R                  
CORTEZ         FAIR      68  45  43 NE10G21   30.07F                  
PAGOSA SPRINGS FAIR      59  43  55 S6        30.23R                  
TELLURIDE      LGT RAIN  45  43  93 CALM      30.37S                  
WOLF CREEK PAS FAIR      41  36  81 SW9       30.48S                  
$$

COZ009-010-012-014-032>034-037-058>063-180200-
...CENTRAL COLORADO...
  
CITY           SKY/WX    TMP DP  RH WIND       PRES   REMARKS
ASPEN          FAIR      62  39  42 VRB5      30.17F                  
BUENA VISTA    FAIR      56  43  59 SE9       30.20R                  
COPPER MTN     SNOW      41  37  87 MISG      30.44R VSB<1/4          
BERTHOUD PASS  FAIR      36  28  75 NW15      30.44R                  
COTTONWOOD PAS FAIR      52  36  54 W8G17     30.30S                  
GUNNISON       FAIR      60  42  51 VRB3      30.20F                  
GRANBY         DRIZZLE   56  44  63 W9        30.22S                  
KREMMLING      NOT AVBL                                               
LEADVILLE      CLOUDY    53  37  54 W6        30.29R                  
MONARCH PASS   FAIR      41  37  87 MISG      30.53R                  
SALIDA         FAIR      58  48  69 SW3       30.26R                  
SUNLIGHT       FAIR      45  37  76 SW5       30.39S                  
WILKERSON PASS CLOUDY    43  37  81 CALM      30.42R                  
$$

COZ069>075-180200-
...SAN LUIS VALLEY/SANGRE DE CRISTO MOUNTAINS...
  
CITY           SKY/WX    TMP DP  RH WIND       PRES   REMARKS
ALAMOSA        LGT RAIN  52  48  86 SE15      30.18F FOG              
DEL NORTE      FAIR      56  46  70 SE14      30.21R                  
LA VETA PASS   NOT AVBL                                               
SAGUACHE       FAIR      61  39  44 CALM      30.19S                  
$$

COZ035-036-038>040-180200-
...NORTHERN COLORADO FRONT RANGE...
  
CITY           SKY/WX    TMP DP  RH WIND       PRES   REMARKS
DENVER INTL AP PTSUNNY   63  54  72 W9        30.07R                  
AURORA         MOSUNNY   62  55  76 W8        30.09R                  
FRONT RANGE AP PTSUNNY   63  55  77 W7        30.09S                  
ERIE MUNI ARPT FAIR      67  53  59 SW5       30.11F                  
BOULDER MUN AP FAIR      68  50  52 CALM      30.06F                  
CENTENNIAL     PTSUNNY   61  52  72 W7        30.11R                  
BROOMFIELD     NOT AVBL                                               
FORT COLLINS     N/A     69  53  56 SW3       30.06S                  
LONGMONT       FAIR      71  49  44 S6        30.06F                  
$$

COZ041-046-047-076>085-087-088-180200-
...PIKES PEAK/PALMER DIVIDE AND SOUTHERN FOOTHILLS...
  
CITY           SKY/WX    TMP DP  RH WIND       PRES   REMARKS
COLO. SPRINGS  PTSUNNY   65  49  56 NW18G25   30.11R                  
A. F. ACADEMY  PTSUNNY   61  49  65 N10       30.11R                  
SCHRIEVER AFB  NOT AVBL                                               
CHEYENNE MTN   NOT AVBL                                               
ELLICOTT         N/A    N/A N/A N/A N8        30.09R                  
FALCON         FAIR      59  48  66 NW12G22   30.15R                  
FORT CARSON    CLOUDY    63  54  72 S14G22    30.07R                  
LIMON          FAIR      61  51  70 N18G28    30.07R                  
MONUMENT HILL  FAIR      57  48  72 NW10      30.18R                  
CANON CITY     FAIR      68  52  56 SE15      30.06R                  
WALSENBURG     NOT AVBL                                               
TRINIDAD       FAIR      66  53  63 N13       30.05R                  
$$

COZ042>045-048>051-090-091-180200-
...NORTHEAST COLORADO...
  
CITY           SKY/WX    TMP DP  RH WIND       PRES   REMARKS
GREELEY ARPT   PTSUNNY   67  52  58 NE5       30.06F                  
AKRON          CLOUDY    60  56  86 SE12      30.05R                  
BURLINGTON     PTSUNNY   67  57  70 SE7       29.99S                  
WRAY           LGT RAIN  64  61  88 S7        29.99R                  
YUMA           CLOUDY    59  46  63 S6        30.02R                  
STERLING       TSTM      61  59  94 S6        30.03F                  
HOLYOKE        TSTM      64  59  82 NW7       30.04R                  
FORT MORGAN    CLOUDY    62  56  81 E15       30.07R                  
$$

COZ086-089-092>099-180200-
...SOUTHEAST COLORADO...
  
CITY           SKY/WX    TMP DP  RH WIND       PRES   REMARKS
PUEBLO         LGT RAIN  59  53  80 W9G21     30.01F                  
LA JUNTA       TSTM      65  54  67 N12G23    30.01R                  
LAMAR          CLOUDY    72  55  55 NE10      29.89R                  
SPRINGFIELD      N/A     67  62  84 S6        29.96R                  
$$